Hourly Weather Murzy

Today, 27 November, Friday

Time Temperature Precipitation Wind Pressure Humidity
00:00 -1°C° 0 mm 4 mps 743 mmHg 88%
01:00 -1°C° 0 mm 4 mps 743 mmHg 88%
02:00 0°C° 0 mm 4 mps 743 mmHg 89%
03:00 0°C° 0.7 mm 4 mps 742 mmHg 90%
04:00 0°C° 0.7 mm 4 mps 742 mmHg 92%
05:00 0°C° 0.7 mm 4 mps 741 mmHg 94%
06:00 0°C° 0.8 mm 4 mps 741 mmHg 94%
07:00 +1°C° 0.8 mm 4 mps 741 mmHg 95%
08:00 +2°C° 0 mm 3 mps 741 mmHg 95%
09:00 +1°C° 1.1 mm 4 mps 741 mmHg 95%
10:00 +1°C° 1.1 mm 4 mps 741 mmHg 95%
11:00 +3°C° 1.1 mm 4 mps 741 mmHg 95%
12:00 +3°C° 0.1 mm 4 mps 741 mmHg 89%
13:00 +1°C° 0.1 mm 4 mps 741 mmHg 84%
14:00 +1°C° 0.1 mm 5 mps 742 mmHg 78%
15:00 +1°C° 0.3 mm 4 mps 742 mmHg 83%
16:00 0°C° 0.3 mm 4 mps 742 mmHg 88%
17:00 -1°C° 0.3 mm 4 mps 742 mmHg 94%
18:00 0°C° 0.2 mm 3 mps 743 mmHg 93%
19:00 -1°C° 0.2 mm 3 mps 743 mmHg 92%
20:00 -1°C° 0.2 mm 3 mps 743 mmHg 91%
21:00 -1°C° 0.1 mm 3 mps 744 mmHg 92%
22:00 -1°C° 0.1 mm 3 mps 744 mmHg 93%
23:00 -1°C° 0.1 mm 3 mps 744 mmHg 94%

Tomorrow, 28 November, Saturday

Time Temperature Precipitation Wind Pressure Humidity
00:00 -2°C° 0 mm 3 mps 745 mmHg 94%
01:00 -2°C° 0 mm 2 mps 745 mmHg 94%
02:00 -2°C° 0 mm 2 mps 745 mmHg 95%
03:00 -2°C° 0 mm 2 mps 746 mmHg 94%
04:00 -2°C° 0 mm 2 mps 746 mmHg 93%
05:00 -2°C° 0 mm 2 mps 746 mmHg 92%
06:00 -2°C° 0.3 mm 2 mps 746 mmHg 94%
07:00 -2°C° 0.3 mm 2 mps 746 mmHg 95%
08:00 -1°C° 0.3 mm 2 mps 747 mmHg 97%
09:00 -1°C° 0.4 mm 2 mps 747 mmHg 96%
10:00 -1°C° 0.4 mm 2 mps 747 mmHg 96%
11:00 +1°C° 0.4 mm 2 mps 748 mmHg 96%
12:00 -1°C° 0.1 mm 2 mps 748 mmHg 94%
13:00 -1°C° 0.1 mm 2 mps 748 mmHg 93%
14:00 -1°C° 0.1 mm 2 mps 748 mmHg 91%
15:00 -1°C° 0 mm 2 mps 748 mmHg 90%
16:00 -2°C° 0 mm 2 mps 748 mmHg 89%
17:00 -2°C° 0 mm 2 mps 748 mmHg 88%
18:00 -2°C° 0 mm 2 mps 749 mmHg 88%
19:00 -2°C° 0 mm 2 mps 749 mmHg 87%
20:00 -2°C° 0 mm 2 mps 750 mmHg 87%
21:00 -2°C° 0 mm 2 mps 750 mmHg 89%
22:00 -1°C° 0 mm 3 mps 750 mmHg 91%
23:00 -1°C° 0 mm 3 mps 750 mmHg 92%

Day after tomorrow, 29 November, Sunday

Time Temperature Precipitation Wind Pressure Humidity
00:00 -2°C° 0.1 mm 3 mps 750 mmHg 94%
01:00 -2°C° 0.1 mm 3 mps 751 mmHg 95%
02:00 -2°C° 0.1 mm 3 mps 751 mmHg 96%
03:00 -2°C° 0 mm 3 mps 751 mmHg 96%
04:00 -2°C° 0 mm 3 mps 751 mmHg 95%
05:00 -2°C° 0 mm 3 mps 751 mmHg 95%
06:00 -2°C° 0 mm 3 mps 751 mmHg 95%
07:00 -2°C° 0 mm 3 mps 751 mmHg 95%
08:00 -2°C° 0 mm 3 mps 751 mmHg 95%
09:00 -2°C° 0 mm 3 mps 751 mmHg 94%
10:00 -1°C° 0 mm 3 mps 751 mmHg 92%
11:00 -2°C° 0 mm 4 mps 751 mmHg 91%
12:00 -2°C° 0 mm 4 mps 751 mmHg 90%
13:00 -2°C° 0 mm 4 mps 751 mmHg 89%
14:00 -1°C° 0 mm 3 mps 750 mmHg 88%
15:00 -1°C° 0 mm 3 mps 750 mmHg 90%
16:00 -1°C° 0 mm 3 mps 750 mmHg 92%
17:00 -1°C° 0 mm 3 mps 749 mmHg 94%
18:00 -2°C° 0.1 mm 3 mps 749 mmHg 95%
19:00 -2°C° 0.1 mm 3 mps 749 mmHg 95%
20:00 -2°C° 0.1 mm 3 mps 749 mmHg 95%
21:00 -2°C° 0.3 mm 3 mps 749 mmHg 96%
22:00 -2°C° 0.3 mm 3 mps 748 mmHg 96%
23:00 -2°C° 0.3 mm 3 mps 748 mmHg 97%

30 November, Monday

Time Temperature Precipitation Wind Pressure Humidity
00:00 -2°C° 0.3 mm 3 mps 748 mmHg 97%
01:00 -2°C° 0.3 mm 3 mps 748 mmHg 97%
02:00 -2°C° 0.3 mm 3 mps 749 mmHg 97%
03:00 -2°C° 0.2 mm 3 mps 748 mmHg 97%
04:00 -2°C° 0.2 mm 3 mps 748 mmHg 97%
05:00 -2°C° 0.2 mm 3 mps 748 mmHg 97%
06:00 -2°C° 0.2 mm 3 mps 749 mmHg 96%
07:00 -3°C° 0.2 mm 4 mps 749 mmHg 96%
08:00 -3°C° 0.2 mm 4 mps 750 mmHg 96%
09:00 -3°C° 0.1 mm 4 mps 750 mmHg 95%
10:00 -3°C° 0.1 mm 4 mps 750 mmHg 93%
11:00 -4°C° 0.1 mm 5 mps 750 mmHg 92%
12:00 -4°C° 0.2 mm 5 mps 751 mmHg 92%
13:00 -4°C° 0.2 mm 5 mps 751 mmHg 93%
14:00 -4°C° 0.2 mm 5 mps 751 mmHg 93%
15:00 -4°C° 0.1 mm 5 mps 751 mmHg 93%
16:00 -3°C° 0.1 mm 4 mps 752 mmHg 93%
17:00 -4°C° 0.1 mm 4 mps 752 mmHg 93%
18:00 -4°C° 0 mm 4 mps 752 mmHg 93%
19:00 -4°C° 0 mm 4 mps 753 mmHg 93%
20:00 -4°C° 0 mm 4 mps 753 mmHg 93%
21:00 -5°C° 0 mm 4 mps 753 mmHg 92%
22:00 -5°C° 0 mm 4 mps 753 mmHg 92%
23:00 -5°C° 0 mm 4 mps 754 mmHg 91%

1 December, Tuesday

Time Temperature Precipitation Wind Pressure Humidity
00:00 -5°C° 0 mm 4 mps 754 mmHg 91%
01:00 -5°C° 0 mm 4 mps 754 mmHg 91%
02:00 -5°C° 0 mm 4 mps 754 mmHg 91%
03:00 -5°C° 0 mm 4 mps 754 mmHg 91%
04:00 -7°C° 0 mm 4 mps 754 mmHg 91%
05:00 -6°C° 0 mm 3 mps 754 mmHg 92%
06:00 -7°C° 0 mm 4 mps 754 mmHg 91%
07:00 -7°C° 0 mm 4 mps 754 mmHg 90%
08:00 -7°C° 0 mm 4 mps 754 mmHg 89%
09:00 -5°C° 0 mm 4 mps 754 mmHg 86%
10:00 -4°C° 0 mm 4 mps 754 mmHg 83%
11:00 -3°C° 0 mm 4 mps 754 mmHg 80%
12:00 -3°C° 0 mm 4 mps 754 mmHg 80%
13:00 -3°C° 0 mm 4 mps 754 mmHg 80%
14:00 -3°C° 0 mm 4 mps 754 mmHg 80%
15:00 -2°C° 0 mm 3 mps 754 mmHg 81%
16:00 -4°C° 0 mm 3 mps 754 mmHg 83%
17:00 -4°C° 0 mm 3 mps 754 mmHg 84%
18:00 -4°C° 0 mm 3 mps 755 mmHg 85%
19:00 -4°C° 0 mm 2 mps 755 mmHg 86%
20:00 -4°C° 0 mm 2 mps 755 mmHg 87%
21:00 -4°C° 0 mm 2 mps 755 mmHg 88%
22:00 -5°C° 0 mm 2 mps 755 mmHg 89%
23:00 -5°C° 0 mm 2 mps 755 mmHg 90%

2 December, Wednesday

Time Temperature Precipitation Wind Pressure Humidity
00:00 -5°C° 0 mm 2 mps 755 mmHg 90%
01:00 -5°C° 0 mm 2 mps 755 mmHg 90%
02:00 -3°C° 0 mm 1 mps 755 mmHg 91%
03:00 -4°C° 0 mm 1 mps 755 mmHg 91%
04:00 -4°C° 0 mm 1 mps 755 mmHg 91%
05:00 -6°C° 0 mm 2 mps 755 mmHg 91%
06:00 -6°C° 0 mm 2 mps 755 mmHg 92%
07:00 -6°C° 0 mm 2 mps 755 mmHg 92%
08:00 -6°C° 0 mm 2 mps 756 mmHg 93%
09:00 -5°C° 0 mm 2 mps 756 mmHg 93%
10:00 -4°C° 0 mm 2 mps 756 mmHg 93%
11:00 -3°C° 0 mm 2 mps 756 mmHg 93%
12:00 -3°C° 0 mm 2 mps 756 mmHg 93%
13:00 -2°C° 0 mm 2 mps 756 mmHg 93%
14:00 -2°C° 0 mm 2 mps 755 mmHg 94%
15:00 -2°C° 0 mm 2 mps 755 mmHg 94%
16:00 -2°C° 0 mm 2 mps 756 mmHg 94%
17:00 -2°C° 0 mm 2 mps 756 mmHg 94%
18:00 -2°C° 0 mm 2 mps 756 mmHg 94%
19:00 -2°C° 0 mm 2 mps 756 mmHg 93%
20:00 -2°C° 0 mm 2 mps 756 mmHg 93%
21:00 -2°C° 0 mm 2 mps 756 mmHg 93%
22:00 -3°C° 0 mm 2 mps 756 mmHg 93%
23:00 -3°C° 0 mm 2 mps 756 mmHg 93%
Show more

We Need Your Consent

Meteoprog and our Service Providers may store and access personal data such as cookies, device identifiers or other similar technologies on your device and process such data to personalise content and ads, as well as provide social media features and to analyse the traffic.

  • Store and/or access information on your device

    Cookies, device identifiers or other information can be stored or accessed on your device for the purposes indicated above.

  • Personalised ads and content, ad and content measurement, audience insights, and products development

    Ads and content can be personalised based on a profile. More data can be added to better personalise ads and content. Ad and content performance can be measured. Insights about the audience who saw the ads and content can be derived. Such data can be used to develop or improve user’s experience, systems and software.

By clicking ‘I Agree’ you will allow the use of indicated cookies, device identifiers, web beacons or other similar technologies. Your settings can be changed in the browser on your device.

For certain purposes, legitimate interests may be relied on, rather than consent. You can read more about this in our Privacy and Cookie Policy.